• In Hungary
  • List of Countries
  • For 7 days
  • Water Temperature
  • Satellite Maps
  • Weather Map
  • News
  • Weather Widgets
  • user-avatar
    Login

    Hourly Weather Sikasso

    Today, 13 November, Tuesday

    Time Temperature Precipitation Wind Pressure Humidity
    00:00 +26°C° 0 mm 0 mps 725 mmHg 30%
    01:00 +26°C° 0 mm 0 mps 725 mmHg 31%
    02:00 +26°C° 0 mm 0 mps 724 mmHg 32%
    03:00 +25°C° 0 mm 0 mps 724 mmHg 32%
    04:00 +27°C° 0 mm 1 mps 724 mmHg 34%
    05:00 +26°C° 0 mm 1 mps 724 mmHg 35%
    06:00 +26°C° 0 mm 1 mps 724 mmHg 37%
    07:00 +28°C° 0 mm 2 mps 725 mmHg 39%
    08:00 +30°C° 0 mm 2 mps 725 mmHg 41%
    09:00 +31°C° 0 mm 2 mps 726 mmHg 43%
    10:00 +35°C° 0 mm 2 mps 726 mmHg 37%
    11:00 +37°C° 0 mm 2 mps 726 mmHg 31%
    12:00 +39°C° 0 mm 1 mps 725 mmHg 26%
    13:00 +39°C° 0 mm 1 mps 725 mmHg 24%
    14:00 +39°C° 0 mm 1 mps 724 mmHg 23%
    15:00 +40°C° 0 mm 2 mps 723 mmHg 21%
    16:00 +37°C° 0 mm 1 mps 723 mmHg 25%
    17:00 +35°C° 0 mm 1 mps 723 mmHg 28%
    18:00 +33°C° 0 mm 1 mps 723 mmHg 32%
    19:00 +32°C° 0 mm 1 mps 724 mmHg 34%
    20:00 +32°C° 0 mm 1 mps 724 mmHg 35%
    21:00 +31°C° 0 mm 1 mps 725 mmHg 37%
    22:00 +31°C° 0 mm 1 mps 725 mmHg 38%
    23:00 +30°C° 0 mm 1 mps 725 mmHg 39%

    Tomorrow, 14 November, Wednesday

    Time Temperature Precipitation Wind Pressure Humidity
    00:00 +30°C° 0 mm 1 mps 725 mmHg 39%
    01:00 +30°C° 0 mm 1 mps 724 mmHg 41%
    02:00 +29°C° 0 mm 1 mps 724 mmHg 43%
    03:00 +29°C° 0 mm 1 mps 724 mmHg 45%
    04:00 +28°C° 0 mm 1 mps 724 mmHg 50%
    05:00 +28°C° 0 mm 1 mps 724 mmHg 54%
    06:00 +28°C° 0 mm 1 mps 724 mmHg 58%
    07:00 +29°C° 0 mm 2 mps 725 mmHg 57%
    08:00 +30°C° 0 mm 2 mps 725 mmHg 55%
    09:00 +32°C° 0 mm 2 mps 726 mmHg 53%
    10:00 +34°C° 0 mm 2 mps 725 mmHg 48%
    11:00 +36°C° 0 mm 2 mps 725 mmHg 42%
    12:00 +37°C° 0 mm 2 mps 725 mmHg 37%
    13:00 +38°C° 0 mm 2 mps 724 mmHg 33%
    14:00 +37°C° 0 mm 1 mps 723 mmHg 30%
    15:00 +39°C° 0 mm 1 mps 723 mmHg 26%
    16:00 +36°C° 0 mm 1 mps 723 mmHg 29%
    17:00 +35°C° 0 mm 1 mps 723 mmHg 33%
    18:00 +34°C° 0 mm 2 mps 723 mmHg 36%
    19:00 +32°C° 0 mm 1 mps 724 mmHg 38%
    20:00 +32°C° 0 mm 1 mps 724 mmHg 41%
    21:00 +31°C° 0 mm 1 mps 725 mmHg 44%
    22:00 +31°C° 0 mm 1 mps 725 mmHg 43%
    23:00 +30°C° 0 mm 1 mps 725 mmHg 42%

    Day after tomorrow, 15 November, Thursday

    Time Temperature Precipitation Wind Pressure Humidity
    00:00 +28°C° 0 mm 0 mps 725 mmHg 42%
    01:00 +30°C° 0 mm 1 mps 725 mmHg 41%
    02:00 +30°C° 0 mm 1 mps 724 mmHg 40%
    03:00 +29°C° 0 mm 1 mps 724 mmHg 40%
    04:00 +29°C° 0 mm 1 mps 724 mmHg 41%
    05:00 +28°C° 0 mm 1 mps 724 mmHg 43%
    06:00 +28°C° 0 mm 1 mps 724 mmHg 44%
    07:00 +29°C° 0 mm 1 mps 725 mmHg 43%
    08:00 +31°C° 0 mm 1 mps 725 mmHg 41%
    09:00 +32°C° 0 mm 1 mps 726 mmHg 40%
    10:00 +34°C° 0 mm 1 mps 726 mmHg 35%
    11:00 +36°C° 0 mm 1 mps 726 mmHg 30%
    12:00 +40°C° 0 mm 1 mps 725 mmHg 25%
    13:00 +40°C° 0 mm 1 mps 725 mmHg 22%
    14:00 +40°C° 0 mm 1 mps 724 mmHg 20%
    15:00 +40°C° 0 mm 1 mps 723 mmHg 17%
    16:00 +37°C° 0 mm 1 mps 723 mmHg 19%
    17:00 +35°C° 0 mm 1 mps 723 mmHg 21%
    18:00 +33°C° 0 mm 1 mps 723 mmHg 24%
    19:00 +33°C° 0 mm 1 mps 724 mmHg 25%
    20:00 +32°C° 0 mm 1 mps 725 mmHg 27%
    21:00 +31°C° 0 mm 1 mps 725 mmHg 28%
    22:00 +31°C° 0 mm 1 mps 725 mmHg 29%
    23:00 +30°C° 0 mm 1 mps 725 mmHg 30%

    16 November, Friday

    Time Temperature Precipitation Wind Pressure Humidity
    00:00 +30°C° 0 mm 1 mps 725 mmHg 31%
    01:00 +29°C° 0 mm 1 mps 725 mmHg 32%
    02:00 +29°C° 0 mm 1 mps 725 mmHg 33%
    03:00 +26°C° 0 mm 0 mps 724 mmHg 34%
    04:00 +28°C° 0 mm 1 mps 724 mmHg 36%
    05:00 +28°C° 0 mm 1 mps 725 mmHg 37%
    06:00 +27°C° 0 mm 1 mps 725 mmHg 38%
    07:00 +29°C° 0 mm 1 mps 726 mmHg 39%
    08:00 +30°C° 0 mm 1 mps 726 mmHg 39%
    09:00 +31°C° 0 mm 1 mps 727 mmHg 39%
    10:00 +33°C° 0 mm 1 mps 727 mmHg 36%
    11:00 +34°C° 0 mm 1 mps 726 mmHg 33%
    12:00 +36°C° 0 mm 1 mps 726 mmHg 30%
    13:00 +36°C° 0 mm 1 mps 726 mmHg 27%
    14:00 +37°C° 0 mm 1 mps 725 mmHg 25%
    15:00 +37°C° 0 mm 1 mps 724 mmHg 23%
    16:00 +35°C° 0 mm 1 mps 724 mmHg 26%
    17:00 +34°C° 0 mm 1 mps 724 mmHg 29%
    18:00 +32°C° 0 mm 1 mps 724 mmHg 33%
    19:00 +31°C° 0 mm 1 mps 725 mmHg 34%
    20:00 +31°C° 0 mm 1 mps 725 mmHg 36%
    21:00 +30°C° 0 mm 1 mps 726 mmHg 37%
    22:00 +29°C° 0 mm 1 mps 726 mmHg 39%
    23:00 +29°C° 0 mm 1 mps 726 mmHg 40%

    17 November, Saturday

    Time Temperature Precipitation Wind Pressure Humidity
    00:00 +28°C° 0 mm 1 mps 725 mmHg 41%
    01:00 +28°C° 0 mm 1 mps 725 mmHg 42%
    02:00 +26°C° 0 mm 0 mps 725 mmHg 43%
    03:00 +25°C° 0 mm 0 mps 724 mmHg 44%
    04:00 +27°C° 0 mm 1 mps 724 mmHg 46%
    05:00 +27°C° 0 mm 1 mps 725 mmHg 47%
    06:00 +27°C° 0 mm 1 mps 725 mmHg 49%
    07:00 +28°C° 0 mm 2 mps 726 mmHg 49%
    08:00 +30°C° 0 mm 2 mps 726 mmHg 48%
    09:00 +32°C° 0 mm 2 mps 727 mmHg 47%
    10:00 +35°C° 0 mm 2 mps 726 mmHg 41%
    11:00 +37°C° 0 mm 2 mps 726 mmHg 36%
    12:00 +39°C° 0 mm 1 mps 726 mmHg 30%
    13:00 +40°C° 0 mm 1 mps 725 mmHg 29%
    14:00 +40°C° 0 mm 1 mps 724 mmHg 27%
    15:00 +40°C° 0 mm 1 mps 723 mmHg 26%
    16:00 +39°C° 0 mm 1 mps 724 mmHg 29%
    17:00 +36°C° 0 mm 1 mps 724 mmHg 32%
    18:00 +34°C° 0 mm 1 mps 724 mmHg 35%
    19:00 +33°C° 0 mm 1 mps 724 mmHg 37%
    20:00 +33°C° 0 mm 1 mps 725 mmHg 38%
    21:00 +32°C° 0 mm 1 mps 725 mmHg 40%
    22:00 +32°C° 0.1 mm 1 mps 725 mmHg 41%
    23:00 +31°C° 0.1 mm 1 mps 725 mmHg 42%

    18 November, Sunday

    Time Temperature Precipitation Wind Pressure Humidity
    00:00 +31°C° 0.1 mm 1 mps 725 mmHg 43%
    01:00 +30°C° 0.3 mm 1 mps 724 mmHg 49%
    02:00 +29°C° 0.3 mm 1 mps 724 mmHg 55%
    03:00 +28°C° 0.3 mm 2 mps 724 mmHg 61%
    04:00 +27°C° 0 mm 2 mps 724 mmHg 65%
    05:00 +27°C° 0 mm 2 mps 724 mmHg 68%
    06:00 +27°C° 0 mm 2 mps 725 mmHg 71%
    07:00 +28°C° 0 mm 2 mps 725 mmHg 67%
    08:00 +29°C° 0 mm 3 mps 726 mmHg 63%
    09:00 +31°C° 0 mm 3 mps 726 mmHg 59%
    10:00 +33°C° 0 mm 3 mps 726 mmHg 53%
    11:00 +35°C° 0 mm 3 mps 726 mmHg 47%
    12:00 +36°C° 0 mm 3 mps 725 mmHg 41%
    13:00 +37°C° 0 mm 2 mps 725 mmHg 37%
    14:00 +37°C° 0 mm 2 mps 724 mmHg 34%
    15:00 +37°C° 0 mm 1 mps 723 mmHg 30%
    16:00 +36°C° 0 mm 1 mps 724 mmHg 33%
    17:00 +34°C° 0 mm 1 mps 724 mmHg 36%
    18:00 +33°C° 0 mm 1 mps 724 mmHg 38%
    19:00 +32°C° 0 mm 1 mps 724 mmHg 40%
    20:00 +32°C° 0 mm 1 mps 725 mmHg 42%
    21:00 +31°C° 0 mm 1 mps 725 mmHg 44%
    22:00 +30°C° 0 mm 1 mps 725 mmHg 46%
    23:00 +30°C° 0 mm 1 mps 725 mmHg 48%
    Show more